Overview Statistics Trail Chart Weather Telemetry Raw packets
 

This is the latest recevied weather packets stored in our database for station/object KD7AWQ. If no packets are shown the sender has not sent any weather packets the latest 10 day(s).

<< 8 9 10 11 12 13 14 >>
Time Temp. Humidity Pressure Rain* Wind** Luminosity Snow
1788394391 28.89° C 37% 1186.7 hPa 0 mm - 104 W/m² -
1788394086 29.44° C 38% 1186.5 hPa 0 mm - 91 W/m² -
1788393781 29.44° C 35% 1186.5 hPa 0 mm - 127 W/m² -
1788393478 30° C 32% 1186.4 hPa 0 mm - 170 W/m² -
1788393174 30° C 30% 1186.4 hPa 0 mm - 226 W/m² -
1788392874 29.44° C 30% 1186.9 hPa 0 mm - 238 W/m² -
1788392568 29.44° C 33% 1186.6 hPa 0 mm - 187 W/m² -
1788392268 29.44° C 35% 1186.4 hPa 0 mm - 185 W/m² -
1788391962 29.44° C 37% 1186.7 hPa 0 mm - 154 W/m² -
1788391661 30° C 37% 1186.7 hPa 0 mm - 171 W/m² -
1788391360 30° C 36% 1186.7 hPa 0 mm - 199 W/m² -
1788391060 30° C 35% 1186.9 hPa 0 mm - 188 W/m² -
1788390756 30° C 34% 1186.9 hPa 0 mm - 186 W/m² -
1788390455 31.11° C 33% 1186.9 hPa 0 mm - 227 W/m² -
1788390154 31.11° C 33% 1186.9 hPa 0 mm - 291 W/m² -
1788389849 31.11° C 31% 1187 hPa 0 mm - 317 W/m² -
1788389544 31.11° C 31% 1186.7 hPa 0 mm - 341 W/m² -
1788389243 31.11° C 30% 1187 hPa 0 mm - 262 W/m² -
1788388938 31.67° C 29% 1187.1 hPa 0 mm - 265 W/m² -
1788388635 31.11° C 30% 1187.1 hPa 0 mm - 797 W/m² -
1788388334 31.67° C 28% 1187.4 hPa 0 mm - 299 W/m² -
1788388033 30.56° C 29% 1187.2 hPa 0 mm - 267 W/m² -
1788387727 31.11° C 30% 1187.2 hPa 0 mm - 221 W/m² -
1788387422 31.67° C 31% 1187.4 hPa 0 mm - 239 W/m² -
1788387121 31.11° C 33% 1187.4 hPa 0 mm - 789 W/m² -

* Rain latest hour (hover to see other rain measurements)
** Current wind speed in m/s (hover to see current wind gust speed)